Location: Friedrichshafen
(47.6598°N, 9.4819°E)
Time: 18:33:09
(UTC+01:00)

Envisat - Visible Passes

Search period start: 21 January 2019 00:00
Search period end: 31 January 2019 00:00
Orbit: 764 x 766 km, 98.2° (Epoch: 20 January)

Date Brightness Start Highest point End Pass type
(mag) Time Alt. Az. Time Alt. Az. Time Alt. Az.
21 Jan 5.4 07:09:34 10° NE 07:13:53 27° E 07:18:09 10° SSE visible
21 Jan 3.1 18:27:09 10° SE 18:32:01 49° ENE 18:36:56 10° N visible
21 Jan 5.2 20:07:13 10° SSW 20:11:18 24° W 20:15:25 10° NW visible
22 Jan 6.1 06:34:22 10° ENE 06:36:42 13° E 06:39:01 10° ESE visible
22 Jan 3.9 17:51:26 10° ESE 17:55:33 26° ENE 17:59:41 10° N visible
22 Jan 3.9 19:29:23 10° S 19:34:18 49° W 19:39:16 10° NNW visible
23 Jan 2.9 18:52:25 10° SSE 18:57:29 81° ENE 19:02:37 10° NNW visible
23 Jan 5.9 20:34:23 10° WSW 20:37:09 15° W 20:39:56 10° NW visible
24 Jan 5.8 06:58:39 10° NE 07:02:35 22° E 07:06:28 10° SE visible
24 Jan 3.4 18:16:10 10° SE 18:20:53 40° ENE 18:25:37 10° N visible
24 Jan 4.8 19:55:35 10° SSW 20:00:00 30° W 20:04:28 10° NNW visible
25 Jan 6.6 06:24:48 10° ENE 06:25:19 10° E 06:25:50 10° E visible
25 Jan 4.2 17:40:43 10° ESE 17:44:27 21° ENE 17:48:14 10° NNE visible
25 Jan 3.5 19:18:02 10° S 19:23:03 62° W 19:28:07 10° NNW visible
26 Jan 2.9 18:41:18 10° SSE 18:46:19 66° ENE 18:51:22 10° N visible
26 Jan 5.6 20:22:22 10° SW 20:25:48 18° W 20:29:16 10° NW visible
27 Jan 5.9 06:47:49 10° NE 06:51:14 18° E 06:54:38 10° SE visible
27 Jan 3.6 18:05:15 10° SE 18:09:45 33° ENE 18:14:17 10° N visible
27 Jan 4.5 19:44:03 10° SSW 19:48:43 37° W 19:53:26 10° NNW visible
28 Jan 3.1 19:06:45 10° S 19:11:50 76° WSW 19:16:57 10° NNW visible
28 Jan 6.2 20:50:52 10° W 20:51:43 10° W 20:52:35 10° WNW visible
29 Jan 5.3 07:12:37 10° NNE 07:17:03 29° E 07:21:27 10° SSE visible
29 Jan 3.1 18:30:13 10° SE 18:35:08 53° ENE 18:40:06 10° N visible
29 Jan 5.3 20:10:33 10° SW 20:14:29 22° W 20:18:26 10° NW visible
30 Jan 6.1 06:37:11 10° NE 06:39:54 14° E 06:42:35 10° ESE visible
30 Jan 3.9 17:54:24 10° ESE 17:58:38 27° ENE 18:02:54 10° N visible
30 Jan 4.1 19:32:36 10° S 19:37:27 45° W 19:42:20 10° NNW visible
